Time,TemperatureF,DewpointF,PressureIn,WindDirection,WindDirectionDegrees,WindSpeedMPH,WindSpeedGustMPH,Humidity,HourlyPrecipIn,Conditions,Clouds,dailyrainin,SoftwareType,DateUTC
2017-03-29 00:00:00,46.4,39.2,30.20,NE,56,0.0,0.0,76,0.00,,,0.00,meteobridge,2017-03-29 07:00:00,
2017-03-29 00:06:00,46.0,36.9,30.20,NE,56,0.0,1.0,70,0.00,,,0.00,meteobridge,2017-03-29 07:06:00,
2017-03-29 00:11:00,46.0,36.5,30.20,NE,55,0.0,0.0,69,0.00,,,0.00,meteobridge,2017-03-29 07:11:00,
2017-03-29 00:16:00,46.0,36.9,30.19,NE,55,0.0,0.0,70,0.00,,,0.00,meteobridge,2017-03-29 07:16:00,
2017-03-29 00:21:00,46.0,37.2,30.20,NE,56,0.0,0.0,71,0.00,,,0.00,meteobridge,2017-03-29 07:21:00,
2017-03-29 00:26:00,45.9,36.7,30.19,NE,56,0.0,0.0,70,0.00,,,0.00,meteobridge,2017-03-29 07:26:00,
2017-03-29 00:31:00,45.9,36.3,30.19,NE,56,0.0,0.0,69,0.00,,,0.00,meteobridge,2017-03-29 07:31:00,
2017-03-29 00:36:00,45.9,36.7,30.19,NE,56,0.0,1.0,70,0.00,,,0.00,meteobridge,2017-03-29 07:36:00,
2017-03-29 00:41:00,45.7,36.1,30.19,NE,56,0.0,0.0,69,0.00,,,0.00,meteobridge,2017-03-29 07:41:00,
2017-03-29 00:46:00,45.7,36.5,30.19,NE,56,0.0,0.0,70,0.00,,,0.00,meteobridge,2017-03-29 07:46:00,
2017-03-29 00:51:00,45.7,36.9,30.19,NE,56,0.0,0.0,71,0.00,,,0.00,meteobridge,2017-03-29 07:51:00,
2017-03-29 00:56:00,45.5,36.0,30.19,NE,56,0.0,0.0,69,0.00,,,0.00,meteobridge,2017-03-29 07:56:00,
2017-03-29 01:01:00,45.7,35.8,30.19,NE,56,0.0,0.0,68,0.00,,,0.00,meteobridge,2017-03-29 08:01:00,
2017-03-29 01:06:00,45.7,36.5,30.19,NE,56,0.0,1.0,70,0.00,,,0.00,meteobridge,2017-03-29 08:06:00,
2017-03-29 01:11:00,45.7,36.1,30.19,NE,56,0.0,0.0,69,0.00,,,0.00,meteobridge,2017-03-29 08:11:00,
2017-03-29 01:17:00,45.7,36.5,30.19,NE,56,0.0,0.0,70,0.00,,,0.00,meteobridge,2017-03-29 08:17:00,
2017-03-29 01:22:00,45.7,36.1,30.19,NE,56,0.0,0.0,69,0.00,,,0.00,meteobridge,2017-03-29 08:22:00,
2017-03-29 01:27:00,45.9,35.6,30.19,NE,56,0.0,0.0,67,0.00,,,0.00,meteobridge,2017-03-29 08:27:00,
2017-03-29 01:32:00,45.9,36.0,30.19,NE,56,0.0,0.0,68,0.00,,,0.00,meteobridge,2017-03-29 08:32:00,
2017-03-29 01:37:00,45.9,36.0,30.19,NE,56,0.0,0.0,68,0.00,,,0.00,meteobridge,2017-03-29 08:37:00,
2017-03-29 01:42:00,45.7,36.5,30.19,NE,56,0.0,0.0,70,0.00,,,0.00,meteobridge,2017-03-29 08:42:00,
2017-03-29 01:47:00,45.7,35.8,30.19,NE,56,0.0,0.0,68,0.00,,,0.00,meteobridge,2017-03-29 08:47:00,
2017-03-29 01:52:00,45.9,35.6,30.19,NE,56,0.0,0.0,67,0.00,,,0.00,meteobridge,2017-03-29 08:52:00,
2017-03-29 01:57:00,45.7,36.1,30.19,NE,56,0.0,0.0,69,0.00,,,0.00,meteobridge,2017-03-29 08:57:00,
2017-03-29 02:02:00,45.7,35.8,30.18,NE,56,0.0,0.0,68,0.00,,,0.00,meteobridge,2017-03-29 09:02:00,
2017-03-29 02:07:00,45.7,36.9,30.18,NE,56,0.0,0.0,71,0.00,,,0.00,meteobridge,2017-03-29 09:07:00,
2017-03-29 02:12:00,45.7,36.9,30.18,NE,56,0.0,0.0,71,0.00,,,0.00,meteobridge,2017-03-29 09:12:00,
2017-03-29 02:17:00,45.5,36.3,30.18,NE,56,0.0,0.0,70,0.00,,,0.00,meteobridge,2017-03-29 09:17:00,
2017-03-29 02:22:00,45.5,36.0,30.18,NE,56,0.0,0.0,69,0.00,,,0.00,meteobridge,2017-03-29 09:22:00,
2017-03-29 02:27:00,45.5,36.0,30.18,NE,55,0.0,0.0,69,0.00,,,0.00,meteobridge,2017-03-29 09:27:00,
2017-03-29 02:32:00,45.7,36.1,30.18,NE,56,0.0,0.0,69,0.00,,,0.00,meteobridge,2017-03-29 09:32:00,
2017-03-29 02:38:00,45.7,35.8,30.17,NE,56,0.0,0.0,68,0.00,,,0.00,meteobridge,2017-03-29 09:38:00,
2017-03-29 02:43:00,45.7,36.1,30.18,NE,56,0.0,1.0,69,0.00,,,0.00,meteobridge,2017-03-29 09:43:00,
2017-03-29 02:48:00,45.5,36.3,30.18,NE,56,0.0,0.0,70,0.00,,,0.00,meteobridge,2017-03-29 09:48:00,
2017-03-29 02:53:00,45.3,35.8,30.18,NE,56,0.0,0.0,69,0.00,,,0.00,meteobridge,2017-03-29 09:53:00,
2017-03-29 02:58:00,45.3,36.1,30.18,NE,56,0.0,0.0,70,0.00,,,0.00,meteobridge,2017-03-29 09:58:00,